Find Starlink 30843

NORAD ID: 58241 Int'l Des: 2023-171 Owner: SPXS Country: US Constellation: starlink operational
LEOCIRCULAR

实时位置

正在加载3D地球...

关于 Starlink 30843

正在加载描述...

即将过境

Passes for default location (London). Set your location on the main map for personalized predictions.

高度历史

Loading altitude history...

两行轨道根数

1 58241U 23171M 26127.54237250 -.00000535 00000-0 -98967-5 0 9999
2 58241 43.0038 312.9874 0001592 268.5252 91.5417 15.27572934138757
Epoch: May 7, 2026 • Age: 9 hours

当前状态

高度 486.8 km
速度 7.62 km/s
星下点 -19.35°S, 88.44°E
发射日期 Nov 8, 2023
运行时间 2.4 years
类型 internet

技术详情

分类 Payload
质量 730.00 kg
干质量 700.00 kg
总质量 730.00 kg
长度 0.30 m
直径 4.10 m
跨度 29.00 m
形状 Box + pan
制造商 SPXS
平台类型 Starlink V2M
阶段状态 In Orbit
所有者/国家 SPXS/US

Most Searched